| time (UTC) | temp C | wind direction | speed KPH | gust KPH | rain 1hr cm | rain 24hr cm | rain mn cm | humidity % | barometer mb |
| 20260510203034 | 27 | 223 | 0.0 | 6.4 | 0.00 | 0.03 | 0.03 | 64 | 1015.8 |
| 20260510201533 | 27 | 190 | 3.2 | 8.0 | 0.00 | 0.03 | 0.03 | 61 | 1015.9 |
| 20260510200034 | 27 | 238 | 1.6 | 8.0 | 0.00 | 0.03 | 0.03 | 63 | 1015.9 |
| 20260510194539 | 27 | 126 | 1.6 | 9.7 | 0.00 | 0.03 | 0.03 | 64 | 1015.9 |
| 20260510193035 | 27 | 82 | 6.4 | 12.9 | 0.00 | 0.03 | 0.03 | 65 | 1016.0 |
| 20260510191533 | 27 | 0 | 3.2 | 6.4 | 0.00 | 0.03 | 0.03 | 63 | 1016.1 |
| 20260510190048 | 26 | 136 | 4.8 | 11.3 | 0.00 | 0.03 | 0.03 | 68 | 1016.1 |
| 20260510184533 | 26 | 118 | 4.8 | 12.9 | 0.00 | 0.03 | 0.03 | 69 | 1016.4 |
| 20260510183033 | 25 | 0 | 4.8 | 12.9 | 0.00 | 0.03 | 0.03 | 69 | 1016.5 |
| 20260510181534 | 25 | 0 | 0.0 | 11.3 | 0.00 | 0.03 | 0.03 | 73 | 1016.7 |
| 20260510180032 | 25 | 0 | 1.6 | 9.7 | 0.00 | 0.03 | 0.03 | 74 | 1016.8 |
| 20260510174534 | 24 | 17 | 0.0 | 9.7 | 0.00 | 0.08 | 0.03 | 76 | 1017.1 |
| 20260510173044 | 23 | 0 | 1.6 | 12.9 | 0.00 | 0.08 | 0.03 | 75 | 1017.4 |
| 20260510171534 | 23 | 81 | 0.0 | 8.0 | 0.00 | 0.08 | 0.03 | 78 | 1017.5 |
| 20260510170032 | 23 | 100 | 1.6 | 11.3 | 0.03 | 0.08 | 0.03 | 80 | 1017.7 |
| 20260510164530 | 22 | 332 | 0.0 | 9.7 | 0.03 | 0.18 | 0.03 | 81 | 1017.8 |
| 20260510163038 | 22 | 0 | 0.0 | 6.4 | 0.03 | 0.18 | 0.03 | 80 | 1017.9 |
| 20260510161536 | 22 | 345 | 1.6 | 12.9 | 0.03 | 0.18 | 0.03 | 81 | 1018.0 |
| 20260510160032 | 22 | 40 | 0.0 | 8.0 | 0.00 | 0.15 | 0.00 | 84 | 1018.1 |
| 20260510154532 | 21 | 67 | 0.0 | 6.4 | 0.00 | 0.56 | 0.00 | 85 | 1018.3 |
| 20260510153047 | 21 | 0 | 0.0 | 6.4 | 0.00 | 0.56 | 0.00 | 86 | 1018.1 |
| 20260510151533 | 21 | 0 | 0.0 | 6.4 | 0.00 | 0.56 | 0.00 | 86 | 1017.8 |
| 20260510150039 | 20 | 0 | 0.0 | 8.0 | 0.00 | 0.56 | 0.00 | 90 | 1017.7 |
| 20260510144541 | 20 | 0 | 0.0 | 6.4 | 0.00 | 0.81 | 0.00 | 92 | 1017.9 |
| 20260510143037 | 20 | 0 | 0.0 | 3.2 | 0.00 | 0.81 | 0.00 | 95 | 1017.9 |
| 20260510141532 | 19 | 0 | 0.0 | 3.2 | 0.00 | 0.81 | 0.00 | 96 | 1018.0 |
| 20260510140036 | 18 | 0 | 0.0 | 0.0 | 0.00 | 0.81 | 0.00 | 96 | 1017.8 |
| 20260510134530 | 18 | 0 | 0.0 | 1.6 | 0.00 | 1.27 | 0.00 | 96 | 1017.6 |
| 20260510133032 | 18 | 0 | 0.0 | 4.8 | 0.00 | 1.27 | 0.00 | 97 | 1017.6 |
| 20260510131532 | 18 | 0 | 1.6 | 3.2 | 0.00 | 1.27 | 0.00 | 96 | 1017.4 |
| 20260510130035 | 18 | 0 | 0.0 | 3.2 | 0.00 | 1.27 | 0.00 | 97 | 1017.3 |
| 20260510124534 | 18 | 0 | 0.0 | 1.6 | 0.00 | 1.47 | 0.00 | 97 | 1017.1 |
| 20260510123033 | 17 | 0 | 0.0 | 1.6 | 0.00 | 1.47 | 0.00 | 97 | 1016.8 |
| 20260510121531 | 17 | 0 | 0.0 | 1.6 | 0.00 | 1.47 | 0.00 | 97 | 1016.7 |
| 20260510120036 | 17 | 0 | 0.0 | 1.6 | 0.00 | 1.47 | 0.00 | 97 | 1016.5 |
| 20260510114540 | 17 | 0 | 0.0 | 3.2 | 0.00 | 1.47 | 0.00 | 97 | 1016.3 |
| 20260510113032 | 17 | 0 | 0.0 | 0.0 | 0.00 | 1.47 | 0.00 | 97 | 1015.9 |
| 20260510111533 | 17 | 0 | 0.0 | 0.0 | 0.00 | 1.47 | 0.00 | 96 | 1015.5 |
| 20260510110031 | 16 | 0 | 0.0 | 0.0 | 0.00 | 1.47 | 0.00 | 97 | 1015.3 |
| 20260510104532 | 16 | 0 | 0.0 | 0.0 | 0.00 | 1.47 | 0.00 | 96 | 1015.0 |
| 20260510103034 | 16 | 0 | 0.0 | 0.0 | 0.00 | 1.47 | 0.00 | 96 | 1015.0 |
| 20260510101535 | 16 | 0 | 0.0 | 0.0 | 0.00 | 1.47 | 0.00 | 96 | 1014.8 |
| 20260510100051 | 16 | 0 | 0.0 | 0.0 | 0.00 | 1.47 | 0.00 | 96 | 1014.7 |
| 20260510094546 | 16 | 0 | 0.0 | 0.0 | 0.00 | 1.47 | 0.00 | 96 | 1014.6 |
| 20260510093034 | 16 | 0 | 0.0 | 0.0 | 0.00 | 1.47 | 0.00 | 96 | 1014.4 |
| 20260510091534 | 17 | 0 | 0.0 | 0.0 | 0.00 | 1.47 | 0.00 | 96 | 1014.3 |
| 20260510090042 | 17 | 0 | 0.0 | 0.0 | 0.00 | 1.47 | 0.00 | 96 | 1014.0 |
| 20260510084532 | 17 | 0 | 0.0 | 0.0 | 0.00 | 1.47 | 0.00 | 96 | 1014.0 |
| 20260510083032 | 17 | 0 | 0.0 | 1.6 | 0.00 | 1.47 | 0.00 | 96 | 1014.1 |
| 20260510081544 | 17 | 0 | 0.0 | 0.0 | 0.00 | 1.47 | 0.00 | 96 | 1013.9 |
| 20260510080033 | 17 | 0 | 0.0 | 0.0 | 0.00 | 1.47 | 0.00 | 96 | 1014.0 |
| 20260510074530 | 17 | 0 | 0.0 | 1.6 | 0.00 | 1.47 | 0.00 | 96 | 1014.0 |
| 20260510073033 | 17 | 0 | 0.0 | 0.0 | 0.00 | 1.47 | 0.00 | 96 | 1013.9 |
| 20260510071540 | 17 | 0 | 0.0 | 0.0 | 0.00 | 1.47 | 0.00 | 96 | 1013.6 |
| 20260510070039 | 17 | 0 | 0.0 | 0.0 | 0.00 | 1.47 | 0.00 | 96 | 1013.5 |
| 20260510064537 | 17 | 0 | 0.0 | 0.0 | 0.00 | 1.47 | 0.00 | 96 | 1013.2 |
| 20260510063035 | 17 | 0 | 0.0 | 0.0 | 0.00 | 1.47 | 0.00 | 96 | 1013.2 |
| 20260510061532 | 17 | 0 | 0.0 | 1.6 | 0.00 | 1.47 | 0.00 | 96 | 1013.3 |
| 20260510060032 | 17 | 0 | 0.0 | 0.0 | 0.00 | 1.47 | 0.00 | 96 | 1013.5 |
| 20260510054532 | 17 | 0 | 0.0 | 3.2 | 0.00 | 1.47 | 0.00 | 96 | 1013.3 |
| 20260510053038 | 17 | 0 | 0.0 | 1.6 | 0.00 | 1.47 | 0.00 | 96 | 1013.4 |
| 20260510051535 | 17 | 0 | 0.0 | 3.2 | 0.00 | 1.47 | 0.00 | 96 | 1013.8 |
| 20260510050034 | 17 | 0 | 0.0 | 1.6 | 0.00 | 1.47 | 0.00 | 96 | 1014.1 |
| 20260510044535 | 18 | 0 | 0.0 | 1.6 | 0.00 | 1.47 | 1.47 | 96 | 1014.1 |
| 20260510043034 | 18 | 0 | 0.0 | 6.4 | 0.00 | 1.47 | 1.47 | 96 | 1014.1 |
| 20260510041534 | 18 | 0 | 0.0 | 8.0 | 0.00 | 1.47 | 1.47 | 96 | 1014.3 |
| 20260510040031 | 18 | 0 | 0.0 | 0.0 | 0.00 | 1.47 | 1.47 | 96 | 1014.7 |
| 20260510034541 | 18 | 0 | 0.0 | 0.0 | 0.00 | 1.47 | 1.47 | 96 | 1014.6 |
| 20260510033032 | 18 | 0 | 0.0 | 0.0 | 0.00 | 1.47 | 1.47 | 96 | 1014.7 |
| 20260510031531 | 18 | 0 | 0.0 | 0.0 | 0.00 | 1.47 | 1.47 | 96 | 1014.7 |
| 20260510030031 | 18 | 0 | 0.0 | 0.0 | 0.00 | 1.47 | 1.47 | 96 | 1014.4 |
| 20260510024531 | 18 | 0 | 0.0 | 0.0 | 0.00 | 1.47 | 1.47 | 95 | 1014.2 |
| 20260510023034 | 18 | 0 | 0.0 | 0.0 | 0.00 | 1.47 | 1.47 | 95 | 1013.8 |
| 20260510021535 | 18 | 0 | 0.0 | 3.2 | 0.00 | 1.47 | 1.47 | 95 | 1014.3 |
| 20260510020034 | 18 | 0 | 0.0 | 0.0 | 0.00 | 1.47 | 1.47 | 95 | 1013.9 |
| 20260510014536 | 18 | 0 | 0.0 | 0.0 | 0.00 | 1.47 | 1.47 | 95 | 1013.9 |
| 20260510013032 | 18 | 0 | 0.0 | 0.0 | 0.00 | 1.47 | 1.47 | 95 | 1013.7 |
| 20260510011540 | 18 | 0 | 0.0 | 0.0 | 0.00 | 1.47 | 1.47 | 95 | 1013.4 |
| 20260510010030 | 18 | 0 | 0.0 | 0.0 | 0.00 | 1.47 | 1.47 | 94 | 1013.6 |
| 20260510004538 | 18 | 0 | 0.0 | 0.0 | 0.00 | 1.52 | 1.47 | 95 | 1013.9 |
| 20260510003034 | 18 | 0 | 0.0 | 0.0 | 0.00 | 1.52 | 1.47 | 94 | 1013.9 |
| 20260510001534 | 19 | 0 | 0.0 | 0.0 | 0.00 | 1.52 | 1.47 | 94 | 1013.3 |
| 20260510000055 | 19 | 0 | 0.0 | 1.6 | 0.00 | 1.52 | 1.47 | 94 | 1013.0 |
| 20260509234548 | 19 | 0 | 0.0 | 1.6 | 0.00 | 1.52 | 1.47 | 93 | 1013.4 |
| 20260509233035 | 19 | 0 | 0.0 | 3.2 | 0.00 | 1.52 | 1.47 | 93 | 1013.1 |
| 20260509231534 | 19 | 0 | 1.6 | 6.4 | 0.00 | 1.52 | 1.47 | 94 | 1012.7 |
| 20260509230036 | 19 | 0 | 0.0 | 0.0 | 0.00 | 1.52 | 1.47 | 93 | 1013.0 |
| 20260509224532 | 19 | 0 | 0.0 | 0.0 | 0.00 | 1.60 | 1.47 | 93 | 1012.8 |
| 20260509223034 | 18 | 0 | 0.0 | 1.6 | 0.00 | 1.60 | 1.47 | 93 | 1012.7 |
| 20260509221534 | 19 | 0 | 0.0 | 6.4 | 0.00 | 1.60 | 1.47 | 93 | 1012.5 |
| 20260509220033 | 18 | 0 | 0.0 | 0.0 | 0.00 | 1.60 | 1.47 | 93 | 1012.7 |
| 20260509214534 | 19 | 0 | 0.0 | 0.0 | 0.00 | 1.93 | 1.47 | 93 | 1012.8 |
| 20260509213038 | 18 | 0 | 0.0 | 1.6 | 0.00 | 1.93 | 1.47 | 92 | 1012.7 |
| 20260509211533 | 18 | 0 | 0.0 | 4.8 | 0.00 | 1.93 | 1.47 | 92 | 1012.7 |
| 20260509210041 | 19 | 0 | 0.0 | 6.4 | 0.00 | 1.93 | 1.47 | 92 | 1012.6 |
| 20260509204539 | 19 | 0 | 0.0 | 9.7 | 0.00 | 2.24 | 1.47 | 93 | 1012.5 |